Time,TemperatureF,DewpointF,PressureIn,WindDirection,WindDirectionDegrees,WindSpeedMPH,WindSpeedGustMPH,Humidity,HourlyPrecipIn,Conditions,Clouds,dailyrainin,SoftwareType,DateUTC
2013-07-21 00:02:00,76.0,74.0,29.68,SE,135,0.0,0.0,93,0.00,,,0.53,,2013-07-21 05:02:00,
2013-07-21 00:11:00,76.0,74.0,29.68,North,360,0.0,0.0,93,0.00,,,0.53,,2013-07-21 05:11:00,
2013-07-21 00:22:00,75.0,73.0,29.69,SE,135,0.0,0.0,93,0.00,,,0.53,,2013-07-21 05:22:00,
2013-07-21 00:32:00,76.0,74.0,29.69,NE,45,0.0,0.0,94,0.00,,,0.53,,2013-07-21 05:32:00,
2013-07-21 00:42:00,76.0,74.0,29.69,NE,45,0.0,0.0,94,0.00,,,0.53,,2013-07-21 05:42:00,
2013-07-21 00:52:00,76.0,74.0,29.68,North,360,0.0,0.0,95,0.00,,,0.53,,2013-07-21 05:52:00,
2013-07-21 01:01:00,76.0,74.0,29.68,North,360,0.0,0.0,95,0.00,,,0.53,,2013-07-21 06:01:00,
2013-07-21 01:11:00,76.0,74.0,29.69,North,360,0.0,0.0,95,0.00,,,0.53,,2013-07-21 06:11:00,
2013-07-21 01:22:00,76.0,74.0,29.68,NW,315,0.0,0.0,94,0.00,,,0.53,,2013-07-21 06:22:00,
2013-07-21 01:32:00,75.0,73.0,29.68,NW,315,0.0,0.0,95,0.00,,,0.53,,2013-07-21 06:32:00,
2013-07-21 01:52:00,75.0,73.0,29.68,NW,315,0.0,0.0,95,0.00,,,0.53,,2013-07-21 06:52:00,
2013-07-21 02:01:00,75.0,73.0,29.68,NW,315,0.0,0.0,95,0.00,,,0.53,,2013-07-21 07:01:00,
2013-07-21 02:11:00,74.0,72.0,29.67,NW,315,0.0,0.0,95,0.00,,,0.53,,2013-07-21 07:11:00,
2013-07-21 02:22:00,74.0,73.0,29.67,NW,315,0.0,0.0,96,0.00,,,0.53,,2013-07-21 07:22:00,
2013-07-21 02:32:00,74.0,73.0,29.67,NW,315,0.0,0.0,96,0.00,,,0.53,,2013-07-21 07:32:00,
2013-07-21 02:43:00,74.0,73.0,29.68,NW,315,0.0,0.0,96,0.00,,,0.53,,2013-07-21 07:43:00,
2013-07-21 02:52:00,74.0,73.0,29.68,NW,315,0.0,0.0,96,0.00,,,0.53,,2013-07-21 07:52:00,
2013-07-21 03:01:00,74.0,73.0,29.67,NW,315,0.0,0.0,97,0.00,,,0.53,,2013-07-21 08:01:00,
2013-07-21 03:11:00,74.0,73.0,29.67,NW,315,0.0,0.0,97,0.00,,,0.53,,2013-07-21 08:11:00,
2013-07-21 03:22:00,74.0,73.0,29.67,NW,315,0.0,0.0,97,0.00,,,0.53,,2013-07-21 08:22:00,
2013-07-21 03:33:00,73.0,73.0,29.67,NW,315,0.0,0.0,100,0.00,,,0.53,,2013-07-21 08:33:00,
2013-07-21 03:43:00,73.0,73.0,29.68,NW,315,0.0,0.0,100,0.00,,,0.53,,2013-07-21 08:43:00,
2013-07-21 03:52:00,73.0,73.0,29.68,NW,315,0.0,0.0,100,0.00,,,0.53,,2013-07-21 08:52:00,
2013-07-21 04:02:00,73.0,73.0,29.67,NW,315,0.0,0.0,99,0.00,,,0.53,,2013-07-21 09:02:00,
2013-07-21 04:12:00,73.0,73.0,29.67,NW,315,0.0,0.0,99,0.00,,,0.53,,2013-07-21 09:12:00,
2013-07-21 04:22:00,73.0,73.0,29.67,NW,315,0.0,0.0,99,0.00,,,0.53,,2013-07-21 09:22:00,
2013-07-21 04:32:00,73.0,73.0,29.67,NW,315,0.0,0.0,99,0.00,,,0.53,,2013-07-21 09:32:00,
2013-07-21 04:42:00,73.0,73.0,29.67,NW,315,0.0,0.0,99,0.00,,,0.53,,2013-07-21 09:42:00,
2013-07-21 04:52:00,72.0,72.0,29.67,NW,315,0.0,0.0,99,0.00,,,0.53,,2013-07-21 09:52:00,
2013-07-21 05:02:00,72.0,72.0,29.67,NW,315,0.0,0.0,99,0.00,,,0.53,,2013-07-21 10:02:00,
2013-07-21 05:11:00,72.0,72.0,29.67,NW,315,0.0,0.0,99,0.00,,,0.53,,2013-07-21 10:11:00,
2013-07-21 05:22:00,72.0,72.0,29.67,NW,315,0.0,0.0,99,0.00,,,0.53,,2013-07-21 10:22:00,
2013-07-21 05:32:00,72.0,72.0,29.67,NW,315,0.0,0.0,99,0.00,,,0.53,,2013-07-21 10:32:00,
2013-07-21 05:43:00,72.0,72.0,29.69,NW,315,0.0,0.0,99,0.00,,,0.53,,2013-07-21 10:43:00,
2013-07-21 05:52:00,72.0,72.0,29.69,West,270,0.0,0.0,99,0.00,,,0.53,,2013-07-21 10:52:00,
2013-07-21 06:02:00,72.0,72.0,29.70,SW,225,0.0,0.0,99,0.00,,,0.53,,2013-07-21 11:02:00,
2013-07-21 06:12:00,72.0,72.0,29.70,SW,225,0.0,0.0,99,0.00,,,0.53,,2013-07-21 11:12:00,
2013-07-21 06:22:00,72.0,72.0,29.70,SW,225,0.0,0.0,99,0.00,,,0.53,,2013-07-21 11:22:00,
2013-07-21 06:33:00,72.0,72.0,29.70,SW,225,0.0,0.0,99,0.00,,,0.53,,2013-07-21 11:33:00,
2013-07-21 06:43:00,72.0,72.0,29.70,SW,225,0.0,0.0,99,0.00,,,0.53,,2013-07-21 11:43:00,
2013-07-21 06:52:00,72.0,72.0,29.70,SW,225,0.0,0.0,99,0.00,,,0.53,,2013-07-21 11:52:00,
2013-07-21 07:01:00,72.0,72.0,29.70,SW,225,0.0,0.0,99,0.00,,,0.53,,2013-07-21 12:01:00,
2013-07-21 07:11:00,72.0,72.0,29.70,SW,225,0.0,0.0,99,0.00,,,0.53,,2013-07-21 12:11:00,
2013-07-21 07:22:00,72.0,72.0,29.70,NW,315,0.0,0.0,99,0.00,,,0.53,,2013-07-21 12:22:00,
2013-07-21 07:32:00,73.0,73.0,29.70,NW,315,0.0,0.0,99,0.00,,,0.53,,2013-07-21 12:32:00,
2013-07-21 07:43:00,73.0,73.0,29.70,NW,315,0.0,0.0,99,0.00,,,0.53,,2013-07-21 12:43:00,
2013-07-21 07:53:00,73.0,73.0,29.70,NW,315,0.0,0.0,99,0.00,,,0.53,,2013-07-21 12:53:00,
2013-07-21 08:01:00,73.0,73.0,29.70,NW,315,0.0,0.0,99,0.00,,,0.53,,2013-07-21 13:01:00,
2013-07-21 08:22:00,79.0,76.0,29.70,North,360,0.0,1.0,91,0.00,,,0.53,,2013-07-21 13:22:00,
2013-07-21 08:33:00,80.0,75.0,29.70,NW,315,0.0,1.0,86,0.00,,,0.53,,2013-07-21 13:33:00,
2013-07-21 08:43:00,80.0,75.0,29.70,NW,315,0.0,1.0,86,0.00,,,0.53,,2013-07-21 13:43:00,
2013-07-21 08:53:00,80.0,75.0,29.70,NW,315,0.0,1.0,86,0.00,,,0.53,,2013-07-21 13:53:00,
2013-07-21 09:01:00,81.0,72.0,29.70,NE,45,0.0,4.0,75,0.00,,,0.53,,2013-07-21 14:01:00,
2013-07-21 09:12:00,81.0,72.0,29.70,NE,45,0.0,4.0,75,0.00,,,0.53,,2013-07-21 14:12:00,
2013-07-21 09:22:00,81.0,73.0,29.70,East,90,0.0,0.0,77,0.00,,,0.53,,2013-07-21 14:22:00,
2013-07-21 09:32:00,81.0,71.0,29.70,NE,45,2.0,7.0,72,0.00,,,0.53,,2013-07-21 14:32:00,
2013-07-21 09:43:00,82.0,72.0,29.70,North,360,0.0,7.0,73,0.00,,,0.53,,2013-07-21 14:43:00,
2013-07-21 09:53:00,82.0,72.0,29.70,North,360,0.0,7.0,73,0.00,,,0.53,,2013-07-21 14:53:00,
2013-07-21 10:02:00,85.0,71.0,29.71,East,90,0.0,5.0,64,0.00,,,0.53,,2013-07-21 15:02:00,
2013-07-21 10:11:00,84.0,70.0,29.71,East,90,2.0,4.0,64,0.00,,,0.53,,2013-07-21 15:11:00,
2013-07-21 10:22:00,84.0,71.0,29.71,East,90,2.0,4.0,65,0.00,,,0.53,,2013-07-21 15:22:00,
2013-07-21 10:32:00,88.0,72.0,29.71,NE,45,0.0,4.0,59,0.00,,,0.53,,2013-07-21 15:32:00,
2013-07-21 10:53:00,89.0,69.0,29.71,North,360,2.0,4.0,52,0.01,,,0.54,,2013-07-21 15:53:00,
2013-07-21 11:01:00,89.0,70.0,29.71,SE,135,0.0,7.0,54,0.01,,,0.54,,2013-07-21 16:01:00,
2013-07-21 11:11:00,89.0,70.0,29.71,SE,135,0.0,7.0,54,0.01,,,0.54,,2013-07-21 16:11:00,
2013-07-21 11:22:00,89.0,70.0,29.71,East,90,0.0,3.0,53,0.01,,,0.54,,2013-07-21 16:22:00,
2013-07-21 11:32:00,89.0,70.0,29.71,East,90,0.0,3.0,53,0.01,,,0.54,,2013-07-21 16:32:00,
2013-07-21 11:43:00,89.0,70.0,29.71,South,180,0.0,5.0,53,0.01,,,0.54,,2013-07-21 16:43:00,
2013-07-21 11:52:00,89.0,70.0,29.71,South,180,0.0,5.0,53,0.01,,,0.54,,2013-07-21 16:52:00,
2013-07-21 12:02:00,92.0,69.0,29.70,East,90,0.0,6.0,47,0.00,,,0.54,,2013-07-21 17:02:00,
2013-07-21 12:11:00,92.0,68.0,29.70,SW,225,0.0,8.0,45,0.00,,,0.54,,2013-07-21 17:11:00,
2013-07-21 12:22:00,92.0,68.0,29.70,SW,225,0.0,8.0,45,0.00,,,0.54,,2013-07-21 17:22:00,
2013-07-21 12:33:00,92.0,68.0,29.70,SW,225,0.0,8.0,45,0.00,,,0.54,,2013-07-21 17:33:00,
2013-07-21 12:43:00,92.0,68.0,29.70,SW,225,0.0,8.0,45,0.00,,,0.54,,2013-07-21 17:43:00,
2013-07-21 12:53:00,93.0,68.0,29.69,East,90,2.0,5.0,44,0.00,,,0.54,,2013-07-21 17:53:00,
2013-07-21 13:01:00,93.0,69.0,29.69,South,180,0.0,4.0,46,0.00,,,0.54,,2013-07-21 18:01:00,
2013-07-21 13:11:00,94.0,69.0,29.68,South,180,0.0,1.0,44,0.00,,,0.54,,2013-07-21 18:11:00,
2013-07-21 13:22:00,96.0,68.0,29.68,SE,135,1.0,3.0,40,0.00,,,0.54,,2013-07-21 18:22:00,
2013-07-21 13:43:00,87.0,67.0,29.68,East,90,1.0,15.0,52,0.00,,,0.54,,2013-07-21 18:43:00,
2013-07-21 14:42:00,95.0,65.0,29.65,East,90,1.0,6.0,37,0.00,,,0.54,,2013-07-21 19:42:00,
2013-07-21 14:52:00,96.0,66.0,29.65,North,360,0.0,5.0,38,0.00,,,0.54,,2013-07-21 19:52:00,
2013-07-21 15:12:00,96.0,65.0,29.65,East,90,0.0,8.0,36,0.00,,,0.54,,2013-07-21 20:12:00,
2013-07-21 16:11:00,97.0,66.0,29.63,East,90,0.0,8.0,36,0.00,,,0.54,,2013-07-21 21:11:00,
2013-07-21 17:01:00,95.0,66.0,29.62,North,360,4.0,8.0,39,0.00,,,0.09,,2013-07-21 22:01:00,
2013-07-21 17:11:00,95.0,66.0,29.62,North,360,4.0,8.0,39,0.00,,,0.09,,2013-07-21 22:11:00,
2013-07-21 17:22:00,95.0,66.0,29.62,North,360,4.0,8.0,39,0.00,,,0.09,,2013-07-21 22:22:00,
2013-07-21 17:32:00,95.0,66.0,29.62,North,360,4.0,8.0,39,0.00,,,0.09,,2013-07-21 22:32:00,
2013-07-21 17:43:00,95.0,66.0,29.62,NE,45,0.0,8.0,39,0.00,,,0.01,,2013-07-21 22:43:00,
2013-07-21 17:52:00,95.0,66.0,29.62,NE,45,0.0,8.0,39,0.00,,,0.01,,2013-07-21 22:52:00,
2013-07-21 18:02:00,95.0,66.0,29.62,NE,45,0.0,8.0,39,0.00,,,0.01,,2013-07-21 23:02:00,
2013-07-21 18:11:00,95.0,66.0,29.62,NE,45,0.0,8.0,39,0.00,,,0.01,,2013-07-21 23:11:00,
2013-07-21 18:22:00,95.0,66.0,29.62,NE,45,0.0,8.0,39,0.00,,,0.01,,2013-07-21 23:22:00,
2013-07-21 20:32:00,86.0,65.0,29.62,West,270,0.0,0.0,49,0.00,,,0.01,,2013-07-22 01:32:00,
2013-07-21 20:42:00,85.0,66.0,29.62,North,360,0.0,0.0,53,0.00,,,0.01,,2013-07-22 01:42:00,
2013-07-21 20:52:00,85.0,66.0,29.62,North,360,0.0,0.0,53,0.00,,,0.01,,2013-07-22 01:52:00,
2013-07-21 21:02:00,82.0,68.0,29.62,NW,315,0.0,0.0,62,0.00,,,0.01,,2013-07-22 02:02:00,
2013-07-21 21:11:00,82.0,68.0,29.62,NW,315,0.0,0.0,62,0.00,,,0.01,,2013-07-22 02:11:00,
2013-07-21 21:22:00,82.0,68.0,29.62,NW,315,0.0,0.0,62,0.00,,,0.01,,2013-07-22 02:22:00,
2013-07-21 21:32:00,82.0,68.0,29.62,NW,315,0.0,0.0,62,0.00,,,0.01,,2013-07-22 02:32:00,
2013-07-21 21:43:00,80.0,70.0,29.63,NW,315,0.0,0.0,71,0.00,,,0.01,,2013-07-22 02:43:00,
2013-07-21 21:52:00,80.0,70.0,29.64,North,360,0.0,0.0,71,0.00,,,0.01,,2013-07-22 02:52:00,
2013-07-21 22:01:00,80.0,70.0,29.64,North,360,0.0,0.0,72,0.00,,,0.01,,2013-07-22 03:01:00,
2013-07-21 22:12:00,79.0,70.0,29.64,NE,45,0.0,0.0,73,0.00,,,0.01,,2013-07-22 03:12:00,
2013-07-21 22:22:00,79.0,70.0,29.64,NE,45,0.0,0.0,73,0.00,,,0.01,,2013-07-22 03:22:00,
2013-07-21 22:33:00,79.0,70.0,29.64,NE,45,0.0,0.0,73,0.00,,,0.01,,2013-07-22 03:33:00,
2013-07-21 22:43:00,79.0,70.0,29.64,NE,45,0.0,0.0,73,0.00,,,0.01,,2013-07-22 03:43:00,
2013-07-21 22:53:00,78.0,71.0,29.65,NW,315,0.0,0.0,79,0.00,,,0.01,,2013-07-22 03:53:00,
2013-07-21 23:01:00,78.0,71.0,29.65,NW,315,0.0,0.0,79,0.00,,,0.01,,2013-07-22 04:01:00,
2013-07-21 23:12:00,78.0,72.0,29.66,NE,45,0.0,0.0,81,0.00,,,0.01,,2013-07-22 04:12:00,
2013-07-21 23:22:00,78.0,72.0,29.66,NE,45,0.0,0.0,82,0.00,,,0.01,,2013-07-22 04:22:00,
2013-07-21 23:33:00,78.0,72.0,29.65,NE,45,0.0,0.0,83,0.00,,,0.01,,2013-07-22 04:33:00,
2013-07-21 23:43:00,77.0,72.0,29.65,NE,45,0.0,0.0,84,0.00,,,0.01,,2013-07-22 04:43:00,